sat.trackr.live / text

‹ back to catalog

STARLINK-34424

NORAD 64295 · 2025-123E

PAYLOAD ACTIVE UNKNOWN

§ Identity

Operator
Country
US
Launch date
2025-06-08
Launch site
AFWTR
Launch vehicle
Mass (kg)
RCS (m²)

Purposes: comms

External: N2YO · Heavens-Above · Gunter

§ Orbital elements

Epoch: 2026-05-24T23:51:58.199040Z

Period
96.11 min
Inclination
70.0022°
Eccentricity
0.0002835
Mean motion
14.98335986 rev/d
Perigee alt
570.1 km
Apogee alt
574.0 km
Semi-major
6,950.2 km
B*
2.1781e-4
RAAN
2.2414°
Arg perigee
266.2993°
Mean anomaly
93.7842°
Rev number
5,426

§ Raw data

STARLINK-344241 64295U 25123E   26144.99442360  .00002507  00000+0  21781-3 0  99982 64295  70.0022   2.2414 0002835 266.2993  93.7842 14.98335986 54263

JSON: /api/v1/satellites/64295 · /tle

For live sub-satellite position, see the globe view (requires WebGL).

§ Visibility from observer

Set your observer location to see the next 7 days of passes ≥ 10°. The values pass through the URL so the page stays shareable.

No JS? Fill the form by hand. The geolocation button needs JavaScript.